Location: Newark
(55.2875°N, 3.1864°W)
Time: 00:26:43
(UTC+00:00)

ISS - Pass Details

Date: 28 January 2020
Orbit: 415 x 423 km, 51.6° (Epoch: 25 February)

Event Time Altitude Azimuth Distance (km) Brightness Sun altitude
Rises 17:22:09 0° 229° (SW) 2,375 1.8 -6.2°
Reaches altitude 10° 17:24:26 10° 217° (SW) 1,511 0.2 -6.5°
Maximum altitude 17:27:22 27° 158° (SSE) 849 -2.2 -6.9°
Drops below altitude 10° 17:30:17 10° 98° (E) 1,513 -1.5 -7.3°
Enters shadow 17:30:48 - 95° (E) 1,698 -1.2 -7.4°
